Overview Statistics Trail Chart Weather Telemetry Raw packets
 

This is the latest recevied weather packets stored in our database for station/object 9A7DI-13. If no packets are shown the sender has not sent any weather packets the latest 10 day(s).

<< 48 49 50 51 52 53 54 >>
Time Temp. Humidity Pressure Rain* Wind** Luminosity Snow
1787919414 33.33° C 36% 1022.7 hPa - - - -
1787918814 33.33° C 36% 1022.7 hPa - - - -
1787918214 33.33° C 36% 1022.9 hPa - - - -
1787917614 33.33° C 35% 1023.1 hPa - - - -
1787917014 32.78° C 38% 1023.3 hPa - - - -
1787916414 32.78° C 36% 1023.5 hPa - - - -
1787915814 32.78° C 37% 1023.7 hPa - - - -
1787915214 32.22° C 36% 1024 hPa - - - -
1787914614 32.22° C 36% 1023.9 hPa - - - -
1787914014 32.22° C 38% 1024 hPa - - - -
1787913414 32.22° C 39% 1024.1 hPa - - - -
1787912814 31.67° C 37% 1024.1 hPa - - - -
1787912215 31.11° C 37% 1024.2 hPa - - - -
1787911615 30.56° C 39% 1024.2 hPa - - - -
1787911014 31.11° C 38% 1024.5 hPa - - - -
1787910414 30.56° C 39% 1024.7 hPa - - - -
1787909814 30.56° C 39% 1024.6 hPa - - - -
1787909220 30° C 40% 1024.7 hPa - - - -
1787908615 30° C 40% 1024.9 hPa - - - -
1787908014 28.89° C 41% 1025 hPa - - - -
1787907414 28.89° C 41% 1024.9 hPa - - - -
1787906814 28.89° C 42% 1025 hPa - - - -
1787906214 28.89° C 42% 1025 hPa - - - -
1787905614 28.33° C 42% 1024.9 hPa - - - -
1787905016 27.78° C 44% 1025.2 hPa - - - -

* Rain since midnight (hover to see other rain measurements)
** Current wind speed in m/s (hover to see current wind gust speed)